Time,TemperatureF,DewpointF,PressureIn,WindDirection,WindDirectionDegrees,WindSpeedMPH,WindSpeedGustMPH,Humidity,HourlyPrecipIn,Conditions,Clouds,dailyrainin,SolarRadiationWatts/m^2,SoftwareType,DateUTC
2013-06-19 00:11:00,72.0,69.0,-100.00,SSE,149,0.0,6.0,90,0.00,,,0.00,1.000000,,2013-06-19 05:11:00,
2013-06-19 00:22:00,72.0,69.0,-100.00,SSE,149,0.0,6.0,90,0.00,,,0.00,1.000000,,2013-06-19 05:22:00,
2013-06-19 00:32:00,72.0,69.0,-100.00,SSE,149,0.0,6.0,90,0.00,,,0.00,1.000000,,2013-06-19 05:32:00,
2013-06-19 00:42:00,72.0,69.0,-100.00,SSE,149,0.0,6.0,90,0.00,,,0.00,1.000000,,2013-06-19 05:42:00,
2013-06-19 00:52:00,72.0,69.0,-100.00,SSE,149,0.0,6.0,90,0.00,,,0.00,1.000000,,2013-06-19 05:52:00,
2013-06-19 01:11:00,73.0,66.0,-100.00,SSW,200,3.0,4.0,79,0.00,,,0.00,1.000000,,2013-06-19 06:11:00,
2013-06-19 01:22:00,73.0,66.0,-100.00,SSW,200,3.0,4.0,79,0.00,,,0.00,1.000000,,2013-06-19 06:22:00,
2013-06-19 01:33:00,73.0,66.0,-100.00,SSW,200,3.0,4.0,79,0.00,,,0.00,1.000000,,2013-06-19 06:33:00,
2013-06-19 01:42:00,73.0,66.0,-100.00,SSW,200,3.0,4.0,79,0.00,,,0.00,1.000000,,2013-06-19 06:42:00,
2013-06-19 01:52:00,73.0,66.0,-100.00,SSW,200,3.0,4.0,79,0.00,,,0.00,1.000000,,2013-06-19 06:52:00,
2013-06-19 01:53:00,71.0,64.0,-100.00,SW,225,3.0,5.0,79,0.00,,,0.00,1.000000,,2013-06-19 06:53:00,
2013-06-19 02:11:00,71.0,64.0,-100.00,SW,225,3.0,5.0,79,0.00,,,0.00,1.000000,,2013-06-19 07:11:00,
2013-06-19 02:22:00,71.0,64.0,-100.00,SW,225,3.0,5.0,79,0.00,,,0.00,1.000000,,2013-06-19 07:22:00,
2013-06-19 02:33:00,71.0,64.0,-100.00,SW,225,3.0,5.0,79,0.00,,,0.00,1.000000,,2013-06-19 07:33:00,
2013-06-19 02:43:00,71.0,64.0,-100.00,SW,225,3.0,5.0,79,0.00,,,0.00,1.000000,,2013-06-19 07:43:00,
2013-06-19 02:53:00,70.0,64.0,-100.00,WSW,238,2.0,5.0,82,0.00,,,0.00,1.000000,,2013-06-19 07:53:00,
2013-06-19 03:11:00,70.0,64.0,-100.00,WSW,238,2.0,5.0,82,0.00,,,0.00,1.000000,,2013-06-19 08:11:00,
2013-06-19 03:22:00,70.0,64.0,-100.00,WSW,238,2.0,5.0,82,0.00,,,0.00,1.000000,,2013-06-19 08:22:00,
2013-06-19 03:33:00,70.0,64.0,-100.00,WSW,238,2.0,5.0,82,0.00,,,0.00,1.000000,,2013-06-19 08:33:00,
2013-06-19 03:43:00,70.0,64.0,-100.00,WSW,238,2.0,5.0,82,0.00,,,0.00,1.000000,,2013-06-19 08:43:00,
2013-06-19 03:53:00,69.0,63.0,-100.00,SW,214,1.0,4.0,82,0.00,,,0.00,1.000000,,2013-06-19 08:53:00,
2013-06-19 04:11:00,69.0,63.0,-100.00,SW,214,1.0,4.0,82,0.00,,,0.00,1.000000,,2013-06-19 09:11:00,
2013-06-19 04:22:00,69.0,63.0,-100.00,SW,214,1.0,4.0,82,0.00,,,0.00,1.000000,,2013-06-19 09:22:00,
2013-06-19 04:34:00,69.0,63.0,-100.00,SW,214,1.0,4.0,82,0.00,,,0.00,1.000000,,2013-06-19 09:34:00,
2013-06-19 04:43:00,69.0,63.0,-100.00,SW,214,1.0,4.0,82,0.00,,,0.00,1.000000,,2013-06-19 09:43:00,
2013-06-19 05:12:00,68.0,63.0,-100.00,SSW,198,2.0,3.0,85,0.00,,,0.00,1.000000,,2013-06-19 10:12:00,
2013-06-19 05:22:00,68.0,63.0,-100.00,SSW,198,2.0,3.0,85,0.00,,,0.00,1.000000,,2013-06-19 10:22:00,
2013-06-19 05:33:00,68.0,63.0,-100.00,SSW,198,2.0,3.0,85,0.00,,,0.00,1.000000,,2013-06-19 10:33:00,
2013-06-19 05:42:00,68.0,63.0,-100.00,SSW,198,2.0,3.0,85,0.00,,,0.00,1.000000,,2013-06-19 10:42:00,
2013-06-19 05:52:00,68.0,63.0,-100.00,SSW,198,2.0,3.0,85,0.00,,,0.00,1.000000,,2013-06-19 10:52:00,
2013-06-19 05:53:00,66.0,63.0,-100.00,WSW,248,1.0,3.0,91,0.00,,,0.00,2.000000,,2013-06-19 10:53:00,
2013-06-19 06:11:00,66.0,63.0,-100.00,WSW,248,1.0,3.0,91,0.00,,,0.00,2.000000,,2013-06-19 11:11:00,
2013-06-19 06:22:00,66.0,63.0,-100.00,WSW,248,1.0,3.0,91,0.00,,,0.00,2.000000,,2013-06-19 11:22:00,
2013-06-19 06:33:00,66.0,63.0,-100.00,WSW,248,1.0,3.0,91,0.00,,,0.00,2.000000,,2013-06-19 11:33:00,
2013-06-19 06:42:00,66.0,63.0,-100.00,WSW,248,1.0,3.0,91,0.00,,,0.00,2.000000,,2013-06-19 11:42:00,
2013-06-19 07:12:00,68.0,63.0,-100.00,SW,226,3.0,6.0,85,0.00,,,0.00,51.000000,,2013-06-19 12:12:00,
2013-06-19 07:22:00,68.0,63.0,-100.00,SW,226,3.0,6.0,85,0.00,,,0.00,51.000000,,2013-06-19 12:22:00,
2013-06-19 07:34:00,68.0,63.0,-100.00,SW,226,3.0,6.0,85,0.00,,,0.00,51.000000,,2013-06-19 12:34:00,
2013-06-19 07:44:00,68.0,63.0,-100.00,SW,226,3.0,6.0,85,0.00,,,0.00,51.000000,,2013-06-19 12:44:00,
2013-06-19 07:52:00,68.0,63.0,-100.00,SW,226,3.0,6.0,85,0.00,,,0.00,51.000000,,2013-06-19 12:52:00,
2013-06-19 07:53:00,74.0,66.0,-100.00,SW,225,4.0,6.0,75,0.00,,,0.00,243.000000,,2013-06-19 12:53:00,
2013-06-19 08:12:00,74.0,66.0,-100.00,SW,225,4.0,6.0,75,0.00,,,0.00,243.000000,,2013-06-19 13:12:00,
2013-06-19 08:33:00,74.0,66.0,-100.00,SW,225,4.0,6.0,75,0.00,,,0.00,243.000000,,2013-06-19 13:33:00,
2013-06-19 08:42:00,74.0,66.0,-100.00,SW,225,4.0,6.0,75,0.00,,,0.00,243.000000,,2013-06-19 13:42:00,
2013-06-19 09:12:00,77.0,66.0,-100.00,WSW,239,5.0,7.0,68,0.00,,,0.00,453.000000,,2013-06-19 14:12:00,
2013-06-19 09:22:00,77.0,66.0,-100.00,WSW,239,5.0,7.0,68,0.00,,,0.00,453.000000,,2013-06-19 14:22:00,
2013-06-19 09:33:00,77.0,66.0,-100.00,WSW,239,5.0,7.0,68,0.00,,,0.00,453.000000,,2013-06-19 14:33:00,
2013-06-19 09:43:00,77.0,66.0,-100.00,WSW,239,5.0,7.0,68,0.00,,,0.00,453.000000,,2013-06-19 14:43:00,
2013-06-19 09:52:00,77.0,66.0,-100.00,WSW,239,5.0,7.0,68,0.00,,,0.00,453.000000,,2013-06-19 14:52:00,
2013-06-19 09:53:00,82.0,67.0,-100.00,WSW,246,3.0,6.0,61,0.00,,,0.00,637.000000,,2013-06-19 14:53:00,
2013-06-19 10:11:00,82.0,67.0,-100.00,WSW,246,3.0,6.0,61,0.00,,,0.00,637.000000,,2013-06-19 15:11:00,
2013-06-19 10:22:00,82.0,67.0,-100.00,WSW,246,3.0,6.0,61,0.00,,,0.00,637.000000,,2013-06-19 15:22:00,
2013-06-19 10:33:00,82.0,67.0,-100.00,WSW,246,3.0,6.0,61,0.00,,,0.00,637.000000,,2013-06-19 15:33:00,
2013-06-19 10:42:00,82.0,67.0,-100.00,WSW,246,3.0,6.0,61,0.00,,,0.00,637.000000,,2013-06-19 15:42:00,
2013-06-19 11:11:00,86.0,61.0,-100.00,WSW,252,4.0,7.0,43,0.00,,,0.00,817.000000,,2013-06-19 16:11:00,
2013-06-19 11:22:00,86.0,61.0,-100.00,WSW,252,4.0,7.0,43,0.00,,,0.00,817.000000,,2013-06-19 16:22:00,
2013-06-19 11:34:00,86.0,61.0,-100.00,WSW,252,4.0,7.0,43,0.00,,,0.00,817.000000,,2013-06-19 16:34:00,
2013-06-19 11:43:00,86.0,61.0,-100.00,WSW,252,4.0,7.0,43,0.00,,,0.00,817.000000,,2013-06-19 16:43:00,
2013-06-19 11:52:00,86.0,61.0,-100.00,WSW,252,4.0,7.0,43,0.00,,,0.00,817.000000,,2013-06-19 16:52:00,
2013-06-19 11:53:00,88.0,63.0,-100.00,NW,314,3.0,7.0,44,0.00,,,0.00,939.000000,,2013-06-19 16:53:00,
2013-06-19 12:12:00,88.0,63.0,-100.00,NW,314,3.0,7.0,44,0.00,,,0.00,939.000000,,2013-06-19 17:12:00,
2013-06-19 12:22:00,88.0,63.0,-100.00,NW,314,3.0,7.0,44,0.00,,,0.00,939.000000,,2013-06-19 17:22:00,
2013-06-19 12:34:00,88.0,63.0,-100.00,NW,314,3.0,7.0,44,0.00,,,0.00,939.000000,,2013-06-19 17:34:00,
2013-06-19 12:43:00,88.0,63.0,-100.00,NW,314,3.0,7.0,44,0.00,,,0.00,939.000000,,2013-06-19 17:43:00,
2013-06-19 12:53:00,88.0,64.0,-100.00,North,7,3.0,7.0,45,0.00,,,0.00,992.000000,,2013-06-19 17:53:00,
2013-06-19 13:11:00,88.0,64.0,-100.00,North,7,3.0,7.0,45,0.00,,,0.00,992.000000,,2013-06-19 18:11:00,
2013-06-19 13:24:00,88.0,64.0,-100.00,North,7,3.0,7.0,45,0.00,,,0.00,992.000000,,2013-06-19 18:24:00,
2013-06-19 13:33:00,88.0,64.0,-100.00,North,7,3.0,7.0,45,0.00,,,0.00,992.000000,,2013-06-19 18:33:00,
2013-06-19 13:44:00,88.0,64.0,-100.00,North,7,3.0,7.0,45,0.00,,,0.00,992.000000,,2013-06-19 18:44:00,
2013-06-19 14:12:00,89.0,64.0,-100.00,South,183,4.0,8.0,44,0.00,,,-99.99,1047.000000,,2013-06-19 19:12:00,
2013-06-19 14:22:00,89.0,64.0,-100.00,South,183,4.0,8.0,44,0.00,,,-99.99,1047.000000,,2013-06-19 19:22:00,
2013-06-19 14:32:00,89.0,64.0,-100.00,South,183,4.0,8.0,44,0.00,,,-99.99,1047.000000,,2013-06-19 19:32:00,
2013-06-19 14:43:00,89.0,64.0,-100.00,South,183,4.0,8.0,44,0.00,,,-99.99,1047.000000,,2013-06-19 19:43:00,
2013-06-19 14:52:00,89.0,64.0,-100.00,South,183,4.0,8.0,44,0.00,,,-99.99,1047.000000,,2013-06-19 19:52:00,
2013-06-19 15:11:00,88.0,63.0,-100.00,ESE,107,3.0,6.0,43,0.00,,,0.00,574.000000,,2013-06-19 20:11:00,
2013-06-19 15:22:00,88.0,63.0,-100.00,ESE,107,3.0,6.0,43,0.00,,,0.00,574.000000,,2013-06-19 20:22:00,
2013-06-19 15:33:00,88.0,63.0,-100.00,ESE,107,3.0,6.0,43,0.00,,,0.00,574.000000,,2013-06-19 20:33:00,
2013-06-19 15:42:00,88.0,63.0,-100.00,ESE,107,3.0,6.0,43,0.00,,,0.00,574.000000,,2013-06-19 20:42:00,
2013-06-19 15:52:00,88.0,63.0,-100.00,ESE,107,3.0,6.0,43,0.00,,,0.00,574.000000,,2013-06-19 20:52:00,
2013-06-19 16:11:00,90.0,64.0,-100.00,East,95,4.0,6.0,42,0.00,,,0.00,657.000000,,2013-06-19 21:11:00,
2013-06-19 16:22:00,90.0,64.0,-100.00,East,95,4.0,6.0,42,0.00,,,0.00,657.000000,,2013-06-19 21:22:00,
2013-06-19 16:33:00,90.0,64.0,-100.00,East,95,4.0,6.0,42,0.00,,,0.00,657.000000,,2013-06-19 21:33:00,
2013-06-19 16:44:00,90.0,64.0,-100.00,East,95,4.0,6.0,42,0.00,,,0.00,657.000000,,2013-06-19 21:44:00,
2013-06-19 16:52:00,90.0,64.0,-100.00,East,95,4.0,6.0,42,0.00,,,0.00,657.000000,,2013-06-19 21:52:00,
2013-06-19 16:53:00,90.0,65.0,-100.00,NW,318,3.0,5.0,44,0.00,,,-99.99,735.000000,,2013-06-19 21:53:00,
2013-06-19 17:11:00,90.0,65.0,-100.00,NW,318,3.0,5.0,44,0.00,,,-99.99,735.000000,,2013-06-19 22:11:00,
2013-06-19 17:22:00,90.0,65.0,-100.00,NW,318,3.0,5.0,44,0.00,,,-99.99,735.000000,,2013-06-19 22:22:00,
2013-06-19 17:34:00,90.0,65.0,-100.00,NW,318,3.0,5.0,44,0.00,,,-99.99,735.000000,,2013-06-19 22:34:00,
2013-06-19 17:43:00,90.0,65.0,-100.00,NW,318,3.0,5.0,44,0.00,,,-99.99,735.000000,,2013-06-19 22:43:00,
2013-06-19 18:12:00,89.0,65.0,-100.00,West,273,2.0,4.0,46,0.00,,,0.00,355.000000,,2013-06-19 23:12:00,
2013-06-19 18:23:00,89.0,65.0,-100.00,West,273,2.0,4.0,46,0.00,,,0.00,355.000000,,2013-06-19 23:23:00,
2013-06-19 18:33:00,89.0,65.0,-100.00,West,273,2.0,4.0,46,0.00,,,0.00,355.000000,,2013-06-19 23:33:00,
2013-06-19 18:43:00,89.0,65.0,-100.00,West,273,2.0,4.0,46,0.00,,,0.00,355.000000,,2013-06-19 23:43:00,
2013-06-19 18:52:00,89.0,65.0,-100.00,West,273,2.0,4.0,46,0.00,,,0.00,355.000000,,2013-06-19 23:52:00,
2013-06-19 19:12:00,87.0,67.0,-100.00,NNW,332,2.0,3.0,51,0.00,,,0.00,322.000000,,2013-06-20 00:12:00,
2013-06-19 19:22:00,87.0,67.0,-100.00,NNW,332,2.0,3.0,51,0.00,,,0.00,322.000000,,2013-06-20 00:22:00,
2013-06-19 19:33:00,87.0,67.0,-100.00,NNW,332,2.0,3.0,51,0.00,,,0.00,322.000000,,2013-06-20 00:33:00,
2013-06-19 19:44:00,87.0,67.0,-100.00,NNW,332,2.0,3.0,51,0.00,,,0.00,322.000000,,2013-06-20 00:44:00,
2013-06-19 19:52:00,87.0,67.0,-100.00,NNW,332,2.0,3.0,51,0.00,,,0.00,322.000000,,2013-06-20 00:52:00,
2013-06-19 20:11:00,81.0,72.0,-100.00,West,272,0.0,3.0,74,0.00,,,0.00,63.000000,,2013-06-20 01:11:00,
2013-06-19 20:22:00,81.0,72.0,-100.00,West,272,0.0,3.0,74,0.00,,,0.00,63.000000,,2013-06-20 01:22:00,
2013-06-19 20:33:00,81.0,72.0,-100.00,West,272,0.0,3.0,74,0.00,,,0.00,63.000000,,2013-06-20 01:33:00,
2013-06-19 20:44:00,81.0,72.0,-100.00,West,272,0.0,3.0,74,0.00,,,0.00,63.000000,,2013-06-20 01:44:00,
2013-06-19 20:52:00,81.0,72.0,-100.00,West,272,0.0,3.0,74,0.00,,,0.00,63.000000,,2013-06-20 01:52:00,
2013-06-19 21:11:00,77.0,73.0,-100.00,ESE,103,0.0,2.0,87,0.00,,,0.00,8.000000,,2013-06-20 02:11:00,
2013-06-19 21:24:00,77.0,73.0,-100.00,ESE,103,0.0,2.0,87,0.00,,,0.00,8.000000,,2013-06-20 02:24:00,
2013-06-19 21:34:00,77.0,73.0,-100.00,ESE,103,0.0,2.0,87,0.00,,,0.00,8.000000,,2013-06-20 02:34:00,
2013-06-19 21:43:00,77.0,73.0,-100.00,ESE,103,0.0,2.0,87,0.00,,,0.00,8.000000,,2013-06-20 02:43:00,
2013-06-19 21:52:00,77.0,73.0,-100.00,ESE,103,0.0,2.0,87,0.00,,,0.00,8.000000,,2013-06-20 02:52:00,
2013-06-19 21:53:00,74.0,72.0,-100.00,NNW,336,1.0,4.0,93,0.00,,,0.00,1.000000,,2013-06-20 02:53:00,
2013-06-19 22:11:00,74.0,72.0,-100.00,NNW,336,1.0,4.0,93,0.00,,,0.00,1.000000,,2013-06-20 03:11:00,
2013-06-19 22:22:00,74.0,72.0,-100.00,NNW,336,1.0,4.0,93,0.00,,,0.00,1.000000,,2013-06-20 03:22:00,
2013-06-19 22:33:00,74.0,72.0,-100.00,NNW,336,1.0,4.0,93,0.00,,,0.00,1.000000,,2013-06-20 03:33:00,
2013-06-19 22:43:00,74.0,72.0,-100.00,NNW,336,1.0,4.0,93,0.00,,,0.00,1.000000,,2013-06-20 03:43:00,
2013-06-19 22:53:00,72.0,70.0,-100.00,SSW,204,0.0,2.0,95,0.00,,,0.00,1.000000,,2013-06-20 03:53:00,
2013-06-19 23:11:00,72.0,70.0,-100.00,SSW,204,0.0,2.0,95,0.00,,,0.00,1.000000,,2013-06-20 04:11:00,
2013-06-19 23:22:00,72.0,70.0,-100.00,SSW,204,0.0,2.0,95,0.00,,,0.00,1.000000,,2013-06-20 04:22:00,
2013-06-19 23:34:00,72.0,70.0,-100.00,SSW,204,0.0,2.0,95,0.00,,,0.00,1.000000,,2013-06-20 04:34:00,
2013-06-19 23:43:00,72.0,70.0,-100.00,SSW,204,0.0,2.0,95,0.00,,,0.00,1.000000,,2013-06-20 04:43:00,